Location: Nelson
(41.2830°S, 173.2830°E)
Time: 00:53:58
(UTC+12:00)

ISS - Visible Passes

Search period start: 15 May 2025 00:00
Search period end: 25 May 2025 00:00
Orbit: 416 x 419 km, 51.6° (Epoch: 14 May)

Date Brightness Start Highest point End Pass type
(mag) Time Alt. Az. Time Alt. Az. Time Alt. Az.
15 May -1.9 06:34:00 10° NNW 06:37:07 34° NE 06:40:16 10° ESE visible
16 May -1.1 05:46:45 10° N 05:49:19 20° NE 05:51:54 10° E visible
17 May -0.6 05:00:36 11° NE 05:01:34 12° NE 05:02:51 10° ENE visible
17 May -3.8 06:34:27 10° NW 06:37:52 83° SW 06:41:18 10° SE visible
18 May -3.2 05:48:39 33° NNW 05:49:55 57° NE 05:53:18 10° ESE visible
19 May -1.3 05:03:22 23° E 05:03:22 23° E 05:05:07 10° ESE visible
19 May -2.9 06:36:21 15° W 06:38:46 35° SSW 06:41:58 10° SE visible
20 May -3.5 05:50:49 52° SSW 05:50:49 52° SSW 05:54:02 10° SE visible
21 May -1.0 05:05:07 17° SE 05:05:07 17° SE 05:06:03 10° SE visible
21 May -2.1 06:38:04 15° SW 06:39:47 21° SSW 06:42:28 10° SE visible
22 May -2.2 05:52:14 24° S 05:52:14 24° S 05:54:32 10° SE visible
23 May -0.7 05:06:17 12° SE 05:06:17 12° SE 05:06:34 10° SE visible
23 May -1.6 06:39:13 12° SW 06:40:53 15° S 06:43:02 10° SSE visible
24 May -1.6 05:53:12 17° S 05:53:12 17° S 05:54:57 10° SSE visible
